| time (UTC) | temp C | wind direction | speed KPH | gust KPH | rain 1hr cm | rain 24hr cm | rain mn cm | humidity % | barometer mb |
| 20260510095018 | 10 | 206 | 0.0 | 0.0 | 0.00 | 0.00 | 0.00 | 96 | 1011.2 |
| 20260510094551 | 10 | 207 | 0.0 | 0.0 | 0.00 | 0.00 | 0.00 | 96 | 1011.3 |
| 20260510094034 | 10 | 207 | 0.0 | 0.0 | 0.00 | 0.00 | 0.00 | 96 | 1011.2 |
| 20260510093553 | 10 | 206 | 0.0 | 0.0 | 0.00 | 0.00 | 0.00 | 96 | 1011.3 |
| 20260510093037 | 10 | 206 | 0.0 | 0.0 | 0.00 | 0.00 | 0.00 | 96 | 1011.3 |
| 20260510092558 | 10 | 206 | 0.0 | 0.0 | 0.00 | 0.00 | 0.00 | 96 | 1011.3 |
| 20260510092037 | 10 | 206 | 0.0 | 0.0 | 0.00 | 0.00 | 0.00 | 96 | 1011.3 |
| 20260510091600 | 10 | 207 | 0.0 | 0.0 | 0.00 | 0.00 | 0.00 | 96 | 1011.3 |
| 20260510091039 | 10 | 242 | 0.0 | 0.0 | 0.00 | 0.00 | 0.00 | 96 | 1011.3 |
| 20260510090559 | 10 | 252 | 0.0 | 0.0 | 0.00 | 0.00 | 0.00 | 96 | 1011.2 |
| 20260510090501 | 10 | 252 | 0.0 | 0.0 | 0.00 | 0.00 | 0.00 | 96 | 1011.2 |
| 20260510090027 | 10 | 313 | 0.0 | 0.0 | 0.00 | 0.00 | 0.00 | 96 | 1011.1 |
| 20260510085504 | 10 | 313 | 0.0 | 0.0 | 0.00 | 0.00 | 0.00 | 96 | 1011.1 |
| 20260510085044 | 10 | 314 | 0.0 | 0.0 | 0.00 | 0.00 | 0.00 | 96 | 1011.0 |
| 20260510084516 | 10 | 313 | 0.0 | 0.0 | 0.00 | 0.00 | 0.00 | 96 | 1011.0 |
| 20260510084049 | 10 | 314 | 0.0 | 0.0 | 0.00 | 0.00 | 0.00 | 96 | 1011.0 |
| 20260510083529 | 10 | 314 | 0.0 | 0.0 | 0.00 | 0.00 | 0.00 | 96 | 1011.0 |
| 20260510083047 | 10 | 314 | 0.0 | 0.0 | 0.00 | 0.00 | 0.00 | 96 | 1011.0 |
| 20260510082509 | 10 | 313 | 0.0 | 0.0 | 0.00 | 0.00 | 0.00 | 96 | 1011.1 |
| 20260510082045 | 10 | 314 | 0.0 | 0.0 | 0.00 | 0.00 | 0.00 | 96 | 1011.1 |
| 20260510081533 | 10 | 314 | 0.0 | 0.0 | 0.00 | 0.00 | 0.00 | 96 | 1010.9 |
| 20260510081048 | 10 | 313 | 0.0 | 0.0 | 0.00 | 0.00 | 0.00 | 96 | 1010.8 |
| 20260510080510 | 10 | 314 | 0.0 | 0.0 | 0.00 | 0.00 | 0.00 | 96 | 1010.8 |
| 20260510080034 | 10 | 314 | 0.0 | 0.0 | 0.00 | 0.00 | 0.00 | 96 | 1010.7 |
| 20260510075510 | 10 | 314 | 0.0 | 0.0 | 0.00 | 0.00 | 0.00 | 96 | 1010.6 |
| 20260510075032 | 10 | 314 | 0.0 | 0.0 | 0.00 | 0.00 | 0.00 | 96 | 1010.6 |
| 20260510074513 | 10 | 314 | 0.0 | 0.0 | 0.00 | 0.00 | 0.00 | 95 | 1010.4 |
| 20260510074037 | 10 | 314 | 0.0 | 0.0 | 0.00 | 0.00 | 0.00 | 95 | 1010.3 |
| 20260510073554 | 10 | 314 | 0.0 | 0.0 | 0.00 | 0.00 | 0.00 | 95 | 1010.3 |
| 20260510073051 | 10 | 313 | 0.0 | 0.0 | 0.00 | 0.00 | 0.00 | 95 | 1010.3 |
| 20260510072559 | 10 | 314 | 0.0 | 0.0 | 0.00 | 0.00 | 0.00 | 95 | 1010.3 |
| 20260510072502 | 10 | 313 | 0.0 | 0.0 | 0.00 | 0.00 | 0.00 | 95 | 1010.3 |
| 20260510072043 | 10 | 314 | 0.0 | 0.0 | 0.00 | 0.00 | 0.00 | 95 | 1010.2 |
| 20260510071559 | 10 | 314 | 0.0 | 0.0 | 0.00 | 0.00 | 0.00 | 95 | 1010.2 |
| 20260510071040 | 10 | 314 | 0.0 | 0.0 | 0.00 | 0.00 | 0.00 | 95 | 1010.1 |
| 20260510070520 | 10 | 314 | 0.0 | 0.0 | 0.00 | 0.00 | 0.00 | 95 | 1010.1 |
| 20260510070106 | 10 | 313 | 0.0 | 0.0 | 0.00 | 0.00 | 0.00 | 95 | 1010.2 |
| 20260510070003 | 10 | 314 | 0.0 | 0.0 | 0.00 | 0.00 | 0.00 | 95 | 1010.2 |
| 20260510065515 | 10 | 314 | 0.0 | 0.0 | 0.00 | 0.00 | 0.00 | 95 | 1010.1 |
| 20260510065034 | 10 | 314 | 0.0 | 0.0 | 0.00 | 0.00 | 0.00 | 95 | 1010.1 |
| 20260510064536 | 11 | 314 | 0.0 | 0.0 | 0.00 | 0.00 | 0.00 | 95 | 1010.0 |
| 20260510064038 | 10 | 313 | 0.0 | 0.0 | 0.00 | 0.00 | 0.00 | 95 | 1009.9 |
| 20260510063558 | 11 | 313 | 0.0 | 0.0 | 0.00 | 0.00 | 0.00 | 95 | 1009.8 |
| 20260510063041 | 11 | 314 | 0.0 | 0.0 | 0.00 | 0.00 | 0.00 | 95 | 1009.8 |
| 20260510062508 | 11 | 314 | 0.0 | 0.0 | 0.00 | 0.00 | 0.00 | 95 | 1009.9 |
| 20260510062044 | 11 | 313 | 0.0 | 0.0 | 0.00 | 0.00 | 0.00 | 94 | 1009.8 |
| 20260510061511 | 11 | 314 | 0.0 | 0.0 | 0.00 | 0.00 | 0.00 | 94 | 1009.9 |
| 20260510061051 | 11 | 313 | 0.0 | 0.0 | 0.00 | 0.00 | 0.00 | 94 | 1009.9 |
| 20260510060511 | 11 | 314 | 0.0 | 0.0 | 0.00 | 0.00 | 0.00 | 94 | 1009.9 |
| 20260510060030 | 11 | 313 | 0.0 | 0.0 | 0.00 | 0.00 | 0.00 | 94 | 1009.8 |
| 20260510055508 | 11 | 314 | 0.0 | 0.0 | 0.00 | 0.00 | 0.00 | 94 | 1009.9 |
| 20260510055034 | 11 | 314 | 0.0 | 0.0 | 0.00 | 0.00 | 0.00 | 94 | 1010.0 |
| 20260510054549 | 11 | 314 | 0.0 | 0.0 | 0.00 | 0.00 | 0.00 | 94 | 1010.0 |
| 20260510054033 | 11 | 313 | 0.0 | 0.0 | 0.00 | 0.00 | 0.00 | 94 | 1010.0 |
| 20260510053550 | 11 | 313 | 0.0 | 0.0 | 0.00 | 0.00 | 0.00 | 94 | 1010.1 |
| 20260510053043 | 11 | 313 | 0.0 | 0.0 | 0.00 | 0.00 | 0.00 | 94 | 1010.0 |
| 20260510052552 | 11 | 314 | 0.0 | 0.0 | 0.00 | 0.00 | 0.00 | 94 | 1010.1 |
| 20260510052032 | 11 | 313 | 0.0 | 0.0 | 0.00 | 0.00 | 0.00 | 94 | 1010.1 |
| 20260510051521 | 11 | 313 | 0.0 | 0.0 | 0.00 | 0.00 | 0.00 | 93 | 1010.1 |
| 20260510051054 | 12 | 314 | 0.0 | 0.0 | 0.00 | 0.00 | 0.00 | 93 | 1010.1 |
| 20260510050506 | 12 | 314 | 0.0 | 0.0 | 0.00 | 0.00 | 0.00 | 93 | 1010.1 |
| 20260510050028 | 12 | 314 | 0.0 | 0.0 | 0.00 | 0.00 | 0.00 | 93 | 1010.1 |
| 20260510045506 | 12 | 313 | 0.0 | 0.0 | 0.00 | 0.00 | 0.00 | 93 | 1010.1 |
| 20260510045031 | 12 | 313 | 0.0 | 0.0 | 0.00 | 0.00 | 0.00 | 93 | 1010.1 |
| 20260510044511 | 12 | 314 | 0.0 | 0.0 | 0.00 | 0.00 | 0.00 | 93 | 1010.1 |
| 20260510044032 | 12 | 314 | 0.0 | 0.0 | 0.00 | 0.00 | 0.00 | 93 | 1010.1 |
| 20260510043550 | 12 | 313 | 0.0 | 0.0 | 0.00 | 0.00 | 0.00 | 92 | 1010.1 |
| 20260510043036 | 12 | 314 | 0.0 | 0.0 | 0.00 | 0.00 | 0.00 | 93 | 1010.2 |
| 20260510042517 | 12 | 314 | 0.0 | 0.0 | 0.00 | 0.00 | 0.00 | 92 | 1010.2 |
| 20260510042034 | 12 | 314 | 0.0 | 0.0 | 0.00 | 0.00 | 0.00 | 92 | 1010.1 |
| 20260510041552 | 12 | 313 | 0.0 | 0.0 | 0.00 | 0.00 | 0.00 | 92 | 1010.1 |
| 20260510041034 | 13 | 313 | 0.0 | 0.0 | 0.00 | 0.00 | 0.00 | 92 | 1010.1 |
| 20260510040521 | 13 | 313 | 0.0 | 0.0 | 0.00 | 0.00 | 0.00 | 92 | 1010.1 |
| 20260510040049 | 13 | 313 | 0.0 | 0.0 | 0.00 | 0.00 | 0.00 | 92 | 1010.0 |
| 20260510035511 | 13 | 313 | 0.0 | 0.0 | 0.00 | 0.00 | 0.00 | 91 | 1010.1 |
| 20260510035046 | 13 | 313 | 0.0 | 0.0 | 0.00 | 0.00 | 0.00 | 91 | 1010.0 |
| 20260510034513 | 13 | 314 | 0.0 | 0.0 | 0.00 | 0.00 | 0.00 | 91 | 1010.0 |
| 20260510034049 | 13 | 314 | 0.0 | 0.0 | 0.00 | 0.00 | 0.00 | 91 | 1009.9 |
| 20260510033538 | 13 | 314 | 0.0 | 0.0 | 0.00 | 0.00 | 0.00 | 91 | 1009.9 |
| 20260510033014 | 13 | 314 | 0.0 | 0.0 | 0.00 | 0.00 | 0.00 | 91 | 1009.9 |
| 20260510032552 | 13 | 314 | 0.0 | 0.0 | 0.00 | 0.00 | 0.00 | 91 | 1010.0 |
| 20260510032036 | 13 | 314 | 0.0 | 0.0 | 0.00 | 0.00 | 0.00 | 91 | 1010.0 |
| 20260510031554 | 13 | 314 | 0.0 | 0.0 | 0.00 | 0.00 | 0.00 | 90 | 1010.0 |
| 20260510031034 | 13 | 314 | 0.0 | 0.0 | 0.00 | 0.00 | 0.00 | 90 | 1009.9 |
| 20260510030519 | 13 | 314 | 0.0 | 0.0 | 0.00 | 0.00 | 0.00 | 90 | 1009.9 |
| 20260510030108 | 13 | 314 | 0.0 | 0.0 | 0.00 | 0.00 | 0.00 | 90 | 1009.8 |
| 20260510025510 | 13 | 314 | 0.0 | 0.0 | 0.00 | 0.00 | 0.00 | 90 | 1009.8 |
| 20260510025033 | 13 | 314 | 0.0 | 0.0 | 0.00 | 0.00 | 0.00 | 90 | 1009.9 |
| 20260510024513 | 13 | 314 | 0.0 | 0.0 | 0.00 | 0.00 | 0.00 | 89 | 1009.8 |
| 20260510024040 | 13 | 313 | 0.0 | 0.0 | 0.00 | 0.00 | 0.00 | 89 | 1009.8 |
| 20260510023516 | 14 | 314 | 0.0 | 0.0 | 0.00 | 0.00 | 0.00 | 89 | 1009.8 |
| 20260510023055 | 13 | 314 | 0.0 | 0.0 | 0.00 | 0.00 | 0.00 | 89 | 1009.7 |
| 20260510022520 | 14 | 313 | 0.0 | 0.0 | 0.00 | 0.00 | 0.00 | 89 | 1009.8 |
| 20260510022053 | 14 | 314 | 0.0 | 0.0 | 0.00 | 0.00 | 0.00 | 89 | 1009.7 |
| 20260510021539 | 14 | 314 | 0.0 | 0.0 | 0.00 | 0.00 | 0.00 | 88 | 1009.7 |
| 20260510021020 | 14 | 314 | 0.0 | 0.0 | 0.00 | 0.00 | 0.00 | 88 | 1009.7 |
| 20260510020542 | 14 | 314 | 0.0 | 0.0 | 0.00 | 0.00 | 0.00 | 88 | 1009.7 |
| 20260510020027 | 15 | 314 | 0.0 | 0.0 | 0.00 | 0.00 | 0.00 | 88 | 1009.6 |
| 20260510015549 | 15 | 314 | 0.0 | 0.0 | 0.00 | 0.00 | 0.00 | 88 | 1009.6 |
| 20260510015012 | 15 | 314 | 0.0 | 0.0 | 0.00 | 0.00 | 0.00 | 88 | 1009.7 |
| 20260510014559 | 15 | 314 | 0.0 | 0.0 | 0.00 | 0.00 | 0.00 | 87 | 1009.6 |
| 20260510014012 | 15 | 314 | 0.0 | 0.0 | 0.00 | 0.00 | 0.00 | 87 | 1009.5 |
| 20260510013536 | 15 | 313 | 0.0 | 0.0 | 0.00 | 0.00 | 0.00 | 86 | 1009.4 |
| 20260510013017 | 15 | 314 | 0.0 | 0.0 | 0.00 | 0.00 | 0.00 | 86 | 1009.3 |
| 20260510012542 | 15 | 314 | 0.0 | 0.0 | 0.00 | 0.00 | 0.00 | 86 | 1009.2 |
| 20260510012100 | 15 | 313 | 0.0 | 0.0 | 0.00 | 0.00 | 0.00 | 86 | 1009.2 |
| 20260510012008 | 15 | 314 | 0.0 | 0.0 | 0.00 | 0.00 | 0.00 | 86 | 1009.2 |
| 20260510011542 | 16 | 314 | 0.0 | 0.0 | 0.00 | 0.00 | 0.00 | 85 | 1009.1 |
| 20260510011010 | 16 | 314 | 0.0 | 0.0 | 0.00 | 0.00 | 0.00 | 85 | 1008.9 |
| 20260510010544 | 16 | 320 | 0.0 | 0.0 | 0.00 | 0.00 | 0.00 | 85 | 1008.9 |
| 20260510010006 | 16 | 320 | 0.0 | 0.0 | 0.00 | 0.00 | 0.00 | 85 | 1008.8 |
| 20260510005528 | 16 | 320 | 0.0 | 0.0 | 0.00 | 0.00 | 0.00 | 84 | 1008.8 |
| 20260510005010 | 16 | 319 | 0.0 | 0.0 | 0.00 | 0.00 | 0.00 | 84 | 1008.7 |
| 20260510004544 | 16 | 320 | 0.0 | 0.0 | 0.00 | 0.00 | 0.00 | 84 | 1008.7 |
| 20260510004026 | 16 | 320 | 0.0 | 0.0 | 0.00 | 0.00 | 0.00 | 84 | 1008.7 |
| 20260510003508 | 16 | 320 | 0.0 | 0.0 | 0.00 | 0.00 | 0.00 | 83 | 1008.7 |
| 20260510003057 | 16 | 319 | 0.0 | 0.0 | 0.00 | 0.00 | 0.00 | 83 | 1008.5 |
| 20260510002525 | 17 | 320 | 0.0 | 0.0 | 0.00 | 0.00 | 0.00 | 82 | 1008.6 |
| 20260510002004 | 17 | 320 | 0.0 | 0.0 | 0.00 | 0.00 | 0.00 | 82 | 1008.5 |
| 20260510001545 | 17 | 319 | 0.0 | 0.0 | 0.00 | 0.00 | 0.00 | 82 | 1008.4 |
| 20260510001058 | 17 | 320 | 0.0 | 0.0 | 0.00 | 0.00 | 0.00 | 81 | 1008.5 |
| 20260510000525 | 17 | 320 | 0.0 | 0.0 | 0.00 | 0.00 | 0.00 | 80 | 1008.5 |
| 20260510000055 | 18 | 320 | 0.0 | 0.0 | 0.00 | 0.00 | 0.00 | 79 | 1008.4 |
| 20260509235534 | 18 | 320 | 0.0 | 0.0 | 0.00 | 0.00 | 0.00 | 79 | 1008.4 |
| 20260509235056 | 18 | 320 | 0.0 | 0.0 | 0.00 | 0.00 | 0.00 | 79 | 1008.4 |
| 20260509234520 | 18 | 319 | 0.0 | 0.0 | 0.00 | 0.00 | 0.00 | 79 | 1008.3 |
| 20260509234058 | 18 | 320 | 0.0 | 0.0 | 0.00 | 0.00 | 0.00 | 79 | 1008.3 |
| 20260509234002 | 18 | 319 | 0.0 | 0.0 | 0.00 | 0.00 | 0.00 | 78 | 1008.3 |
| 20260509233525 | 18 | 319 | 0.0 | 0.0 | 0.00 | 0.00 | 0.00 | 78 | 1008.3 |
| 20260509233044 | 18 | 320 | 0.0 | 0.0 | 0.00 | 0.00 | 0.00 | 77 | 1008.2 |
| 20260509232528 | 18 | 320 | 0.0 | 0.0 | 0.00 | 0.00 | 0.00 | 77 | 1008.1 |
| 20260509232049 | 19 | 320 | 0.0 | 0.0 | 0.00 | 0.00 | 0.00 | 77 | 1008.0 |
| 20260509231534 | 19 | 320 | 0.0 | 0.0 | 0.00 | 0.00 | 0.00 | 76 | 1008.1 |
| 20260509231049 | 19 | 320 | 0.0 | 0.0 | 0.00 | 0.00 | 0.00 | 76 | 1008.2 |
| 20260509230535 | 20 | 320 | 0.0 | 0.0 | 0.00 | 0.00 | 0.00 | 75 | 1008.1 |
| 20260509230059 | 20 | 320 | 0.0 | 0.0 | 0.00 | 0.00 | 0.00 | 75 | 1008.2 |
| 20260509225518 | 20 | 319 | 0.0 | 0.0 | 0.00 | 0.00 | 0.00 | 74 | 1008.0 |
| 20260509225054 | 20 | 319 | 0.0 | 0.0 | 0.00 | 0.00 | 0.00 | 74 | 1008.0 |
| 20260509224522 | 21 | 323 | 0.0 | 0.0 | 0.00 | 0.00 | 0.00 | 73 | 1007.9 |
| 20260509224056 | 21 | 323 | 0.0 | 0.0 | 0.00 | 0.00 | 0.00 | 72 | 1008.0 |
| 20260509223523 | 21 | 63 | 0.0 | 0.0 | 0.00 | 0.00 | 0.00 | 71 | 1008.0 |
| 20260509223111 | 21 | 60 | 0.0 | 0.0 | 0.00 | 0.00 | 0.00 | 70 | 1008.0 |
| 20260509223005 | 21 | 60 | 0.0 | 0.0 | 0.00 | 0.00 | 0.00 | 71 | 1008.1 |
| 20260509222530 | 21 | 54 | 0.0 | 0.0 | 0.00 | 0.00 | 0.00 | 70 | 1008.1 |
| 20260509222046 | 21 | 53 | 0.0 | 0.0 | 0.00 | 0.00 | 0.00 | 64 | 1008.1 |
| 20260509221524 | 21 | 54 | 0.0 | 0.0 | 0.00 | 0.00 | 0.00 | 64 | 1008.0 |
| 20260509221046 | 21 | 53 | 0.0 | 0.0 | 0.00 | 0.00 | 0.00 | 63 | 1008.0 |
| 20260509220512 | 22 | 53 | 0.0 | 0.0 | 0.00 | 0.00 | 0.00 | 64 | 1008.1 |
| 20260509220050 | 22 | 53 | 0.0 | 0.0 | 0.00 | 0.00 | 0.00 | 63 | 1008.0 |
| 20260509215517 | 22 | 36 | 0.0 | 0.0 | 0.00 | 0.00 | 0.00 | 63 | 1008.1 |
| 20260509215051 | 22 | 37 | 0.0 | 0.0 | 0.00 | 0.00 | 0.00 | 64 | 1008.0 |
| 20260509214512 | 22 | 35 | 0.0 | 0.0 | 0.00 | 0.00 | 0.00 | 64 | 1008.0 |
| 20260509214035 | 22 | 86 | 0.0 | 0.0 | 0.00 | 0.00 | 0.00 | 63 | 1008.0 |
| 20260509213516 | 22 | 101 | 0.0 | 0.0 | 0.00 | 0.00 | 0.00 | 63 | 1008.0 |
| 20260509213042 | 22 | 46 | 0.0 | 0.0 | 0.00 | 0.00 | 0.00 | 64 | 1008.0 |
| 20260509212524 | 22 | 72 | 0.0 | 0.0 | 0.00 | 0.00 | 0.00 | 64 | 1008.1 |
| 20260509212045 | 22 | 39 | 0.0 | 0.0 | 0.00 | 0.00 | 0.00 | 65 | 1008.1 |
| 20260509211508 | 22 | 46 | 0.0 | 1.6 | 0.00 | 0.00 | 0.00 | 64 | 1008.0 |
| 20260509211045 | 22 | 16 | 0.0 | 1.6 | 0.00 | 0.00 | 0.00 | 63 | 1008.0 |
| 20260509210506 | 22 | 5 | 0.0 | 0.0 | 0.00 | 0.00 | 0.00 | 65 | 1008.0 |
| 20260509210028 | 22 | 58 | 0.0 | 0.0 | 0.00 | 0.00 | 0.00 | 65 | 1008.0 |
| 20260509205507 | 21 | 310 | 0.0 | 3.2 | 0.00 | 0.00 | 0.00 | 66 | 1008.0 |
| 20260509205028 | 22 | 39 | 0.0 | 3.2 | 0.00 | 0.00 | 0.00 | 64 | 1008.0 |
| 20260509204545 | 22 | 117 | 0.0 | 3.2 | 0.00 | 0.00 | 0.00 | 65 | 1008.0 |
| 20260509204028 | 22 | 51 | 0.0 | 3.2 | 0.00 | 0.00 | 0.00 | 64 | 1008.0 |
| 20260509203552 | 22 | 311 | 0.0 | 6.4 | 0.00 | 0.00 | 0.00 | 66 | 1007.9 |
| 20260509203029 | 22 | 96 | 0.0 | 6.4 | 0.00 | 0.00 | 0.00 | 66 | 1007.9 |
| 20260509202553 | 22 | 43 | 0.0 | 0.0 | 0.00 | 0.00 | 0.00 | 67 | 1007.8 |
| 20260509202016 | 22 | 297 | 0.0 | 0.0 | 0.00 | 0.00 | 0.00 | 67 | 1007.9 |
| 20260509201536 | 22 | 299 | 0.0 | 6.4 | 0.00 | 0.00 | 0.00 | 68 | 1008.0 |
| 20260509201057 | 21 | 49 | 0.0 | 6.4 | 0.00 | 0.00 | 0.00 | 67 | 1008.1 |
| 20260509200538 | 21 | 8 | 0.0 | 0.0 | 0.00 | 0.00 | 0.00 | 68 | 1008.1 |
| 20260509200110 | 21 | 75 | 0.0 | 0.0 | 0.00 | 0.00 | 0.00 | 67 | 1008.2 |
| 20260509200002 | 21 | 82 | 0.0 | 0.0 | 0.00 | 0.00 | 0.00 | 67 | 1008.2 |
| 20260509195542 | 21 | 300 | 0.0 | 0.0 | 0.00 | 0.00 | 0.00 | 68 | 1008.3 |
| 20260509195003 | 21 | 28 | 0.0 | 0.0 | 0.00 | 0.00 | 0.00 | 69 | 1008.4 |
| 20260509194534 | 21 | 32 | 0.0 | 0.0 | 0.00 | 0.00 | 0.00 | 68 | 1008.5 |
| 20260509194059 | 21 | 32 | 0.0 | 0.0 | 0.00 | 0.00 | 0.00 | 67 | 1008.6 |
| 20260509194002 | 21 | 32 | 0.0 | 0.0 | 0.00 | 0.00 | 0.00 | 67 | 1008.7 |
| 20260509193523 | 21 | 63 | 0.0 | 0.0 | 0.00 | 0.00 | 0.00 | 67 | 1008.7 |
| 20260509193103 | 21 | 353 | 0.0 | 0.0 | 0.00 | 0.00 | 0.00 | 67 | 1008.9 |
| 20260509193002 | 21 | 353 | 0.0 | 0.0 | 0.00 | 0.00 | 0.00 | 67 | 1008.9 |
| 20260509192526 | 21 | 68 | 0.0 | 0.0 | 0.00 | 0.00 | 0.00 | 67 | 1008.9 |
| 20260509192048 | 21 | 62 | 0.0 | 0.0 | 0.00 | 0.00 | 0.00 | 66 | 1008.9 |
| 20260509191533 | 21 | 68 | 0.0 | 0.0 | 0.00 | 0.00 | 0.00 | 66 | 1008.9 |
| 20260509191012 | 21 | 78 | 0.0 | 0.0 | 0.00 | 0.00 | 0.00 | 65 | 1008.9 |
| 20260509190549 | 21 | 314 | 0.0 | 0.0 | 0.00 | 0.00 | 0.00 | 66 | 1008.7 |
| 20260509190027 | 21 | 54 | 0.0 | 0.0 | 0.00 | 0.03 | 0.00 | 66 | 1009.0 |
| 20260509185508 | 21 | 316 | 0.0 | 0.0 | 0.00 | 0.03 | 0.00 | 66 | 1009.1 |
| 20260509185030 | 21 | 70 | 0.0 | 0.0 | 0.00 | 0.03 | 0.00 | 68 | 1009.1 |
| 20260509184511 | 21 | 87 | 0.0 | 0.0 | 0.00 | 0.03 | 0.00 | 66 | 1009.3 |
| 20260509184033 | 21 | 105 | 0.0 | 0.0 | 0.00 | 0.03 | 0.00 | 67 | 1009.1 |
| 20260509183515 | 20 | 33 | 0.0 | 0.0 | 0.00 | 0.03 | 0.00 | 67 | 1009.2 |
| 20260509183100 | 20 | 118 | 0.0 | 0.0 | 0.00 | 0.03 | 0.00 | 68 | 1009.3 |
| 20260509182533 | 20 | 231 | 0.0 | 0.0 | 0.00 | 0.03 | 0.00 | 68 | 1009.3 |
| 20260509182051 | 20 | 56 | 0.0 | 0.0 | 0.00 | 0.03 | 0.00 | 70 | 1009.4 |
| 20260509181534 | 20 | 51 | 0.0 | 0.0 | 0.00 | 0.03 | 0.00 | 69 | 1009.6 |
| 20260509181052 | 20 | 51 | 0.0 | 0.0 | 0.00 | 0.03 | 0.00 | 69 | 1009.8 |
| 20260509180523 | 20 | 130 | 0.0 | 0.0 | 0.00 | 0.03 | 0.00 | 69 | 1009.9 |
| 20260509180041 | 20 | 122 | 0.0 | 0.0 | 0.00 | 0.03 | 0.00 | 69 | 1010.0 |
| 20260509175523 | 20 | 118 | 0.0 | 0.0 | 0.00 | 0.03 | 0.00 | 69 | 1010.0 |
| 20260509175053 | 20 | 118 | 0.0 | 0.0 | 0.00 | 0.03 | 0.00 | 70 | 1010.1 |
| 20260509174535 | 20 | 119 | 0.0 | 0.0 | 0.00 | 0.03 | 0.00 | 70 | 1010.1 |
| 20260509174054 | 20 | 247 | 0.0 | 0.0 | 0.00 | 0.03 | 0.00 | 69 | 1010.1 |
| 20260509173520 | 20 | 118 | 0.0 | 0.0 | 0.00 | 0.03 | 0.00 | 69 | 1010.0 |
| 20260509173104 | 19 | 49 | 0.0 | 0.0 | 0.00 | 0.03 | 0.00 | 69 | 1010.0 |
| 20260509173002 | 19 | 49 | 0.0 | 0.0 | 0.00 | 0.03 | 0.00 | 69 | 1010.0 |
| 20260509172527 | 19 | 27 | 0.0 | 0.0 | 0.00 | 0.03 | 0.00 | 69 | 1010.2 |
| 20260509172012 | 19 | 57 | 0.0 | 0.0 | 0.00 | 0.03 | 0.00 | 70 | 1010.2 |
| 20260509171542 | 19 | 31 | 0.0 | 0.0 | 0.00 | 0.03 | 0.00 | 69 | 1010.2 |
| 20260509171011 | 19 | 16 | 0.0 | 0.0 | 0.00 | 0.03 | 0.00 | 71 | 1010.1 |
| 20260509170552 | 19 | 214 | 0.0 | 0.0 | 0.00 | 0.03 | 0.00 | 70 | 1010.2 |
| 20260509170012 | 19 | 113 | 0.0 | 0.0 | 0.00 | 0.03 | 0.00 | 71 | 1010.2 |
| 20260509165534 | 19 | 338 | 0.0 | 0.0 | 0.00 | 0.03 | 0.00 | 70 | 1010.3 |
| 20260509165015 | 19 | 92 | 0.0 | 0.0 | 0.00 | 0.03 | 0.00 | 69 | 1010.3 |
| 20260509164539 | 19 | 39 | 0.0 | 0.0 | 0.00 | 0.03 | 0.00 | 69 | 1010.3 |
| 20260509164018 | 19 | 126 | 0.0 | 3.2 | 0.00 | 0.03 | 0.00 | 70 | 1010.2 |
| 20260509163543 | 19 | 126 | 0.0 | 3.2 | 0.00 | 0.03 | 0.00 | 69 | 1010.2 |
| 20260509163010 | 19 | 134 | 0.0 | 0.0 | 0.00 | 0.03 | 0.00 | 70 | 1010.3 |
| 20260509162546 | 18 | 103 | 0.0 | 0.0 | 0.00 | 0.03 | 0.00 | 69 | 1010.4 |
| 20260509162015 | 19 | 49 | 0.0 | 0.0 | 0.00 | 0.03 | 0.00 | 69 | 1010.3 |
| 20260509161543 | 19 | 128 | 0.0 | 0.0 | 0.00 | 0.03 | 0.00 | 68 | 1010.4 |
| 20260509161017 | 20 | 127 | 0.0 | 0.0 | 0.00 | 0.03 | 0.00 | 66 | 1010.4 |
| 20260509160539 | 20 | 311 | 0.0 | 0.0 | 0.00 | 0.03 | 0.00 | 66 | 1010.4 |
| 20260509160059 | 20 | 314 | 0.0 | 0.0 | 0.00 | 0.03 | 0.00 | 65 | 1010.5 |
| 20260509160008 | 20 | 295 | 0.0 | 0.0 | 0.00 | 0.03 | 0.00 | 65 | 1010.5 |
| 20260509155549 | 20 | 316 | 0.0 | 0.0 | 0.00 | 0.03 | 0.00 | 65 | 1010.6 |
| 20260509155011 | 20 | 336 | 0.0 | 1.6 | 0.00 | 0.03 | 0.00 | 65 | 1010.5 |
| 20260509154548 | 20 | 84 | 0.0 | 1.6 | 0.00 | 0.03 | 0.00 | 66 | 1010.5 |
| 20260509154007 | 20 | 68 | 0.0 | 3.2 | 0.00 | 0.03 | 0.00 | 68 | 1010.6 |
| 20260509153530 | 19 | 27 | 0.0 | 3.2 | 0.00 | 0.03 | 0.00 | 67 | 1010.6 |
| 20260509153027 | 19 | 71 | 0.0 | 0.0 | 0.00 | 0.03 | 0.00 | 68 | 1010.6 |
| 20260509152537 | 18 | 39 | 0.0 | 0.0 | 0.00 | 0.03 | 0.00 | 70 | 1010.7 |
| 20260509152056 | 18 | 27 | 0.0 | 0.0 | 0.00 | 0.03 | 0.00 | 69 | 1010.7 |
| 20260509151542 | 17 | 19 | 0.0 | 0.0 | 0.00 | 0.03 | 0.00 | 69 | 1010.8 |
| 20260509151057 | 17 | 6 | 0.0 | 1.6 | 0.00 | 0.03 | 0.00 | 70 | 1010.9 |
| 20260509151000 | 17 | 5 | 0.0 | 1.6 | 0.00 | 0.03 | 0.00 | 71 | 1010.9 |
| 20260509150545 | 17 | 22 | 0.0 | 1.6 | 0.00 | 0.03 | 0.00 | 69 | 1011.0 |
| 20260509150104 | 17 | 33 | 0.0 | 0.0 | 0.00 | 0.03 | 0.00 | 69 | 1011.0 |
| 20260509150004 | 17 | 19 | 0.0 | 0.0 | 0.00 | 0.03 | 0.00 | 70 | 1011.0 |
| 20260509145527 | 17 | 53 | 0.0 | 0.0 | 0.00 | 0.03 | 0.00 | 72 | 1011.0 |
| 20260509145003 | 17 | 52 | 0.0 | 0.0 | 0.00 | 0.03 | 0.00 | 72 | 1011.2 |
| 20260509144531 | 17 | 53 | 0.0 | 0.0 | 0.00 | 0.03 | 0.00 | 73 | 1011.2 |
| 20260509144045 | 16 | 307 | 0.0 | 0.0 | 0.00 | 0.03 | 0.00 | 74 | 1011.3 |
| 20260509143521 | 16 | 39 | 0.0 | 1.6 | 0.00 | 0.03 | 0.00 | 73 | 1011.4 |
| 20260509143055 | 16 | 45 | 0.0 | 1.6 | 0.00 | 0.03 | 0.00 | 73 | 1011.4 |
| 20260509142530 | 16 | 81 | 0.0 | 4.8 | 0.00 | 0.03 | 0.00 | 73 | 1011.3 |
| 20260509142049 | 16 | 315 | 0.0 | 4.8 | 0.00 | 0.03 | 0.00 | 72 | 1011.3 |
| 20260509141513 | 16 | 72 | 0.0 | 1.6 | 0.00 | 0.03 | 0.00 | 72 | 1011.2 |
| 20260509141054 | 16 | 332 | 0.0 | 1.6 | 0.00 | 0.03 | 0.00 | 71 | 1011.2 |
| 20260509140516 | 16 | 44 | 0.0 | 0.0 | 0.00 | 0.03 | 0.00 | 72 | 1011.1 |
| 20260509140105 | 16 | 30 | 0.0 | 0.0 | 0.00 | 0.03 | 0.00 | 72 | 1011.1 |
| 20260509135521 | 16 | 56 | 0.0 | 1.6 | 0.00 | 0.03 | 0.00 | 72 | 1011.2 |
| 20260509135057 | 16 | 46 | 0.0 | 0.0 | 0.00 | 0.03 | 0.00 | 72 | 1011.3 |
| 20260509134517 | 16 | 78 | 0.0 | 1.6 | 0.00 | 0.03 | 0.00 | 72 | 1011.2 |
| 20260509134038 | 16 | 68 | 0.0 | 1.6 | 0.00 | 0.03 | 0.00 | 72 | 1011.2 |
| 20260509133518 | 16 | 59 | 0.0 | 0.0 | 0.00 | 0.03 | 0.00 | 72 | 1011.2 |
| 20260509133043 | 16 | 307 | 0.0 | 0.0 | 0.00 | 0.03 | 0.00 | 72 | 1011.2 |
| 20260509132523 | 16 | 51 | 0.0 | 0.0 | 0.00 | 0.03 | 0.00 | 73 | 1011.3 |
| 20260509132045 | 16 | 32 | 0.0 | 0.0 | 0.00 | 0.03 | 0.00 | 72 | 1011.2 |
| 20260509131509 | 16 | 68 | 0.0 | 0.0 | 0.00 | 0.03 | 0.00 | 73 | 1011.2 |
| 20260509131047 | 16 | 62 | 0.0 | 6.4 | 0.00 | 0.03 | 0.00 | 72 | 1011.2 |
| 20260509130511 | 16 | 40 | 0.0 | 0.0 | 0.00 | 0.03 | 0.00 | 71 | 1011.2 |
| 20260509130047 | 16 | 50 | 0.0 | 0.0 | 0.00 | 0.03 | 0.00 | 70 | 1011.1 |
| 20260509125519 | 16 | 24 | 0.0 | 0.0 | 0.00 | 0.03 | 0.00 | 71 | 1011.2 |
| 20260509125046 | 16 | 319 | 0.0 | 0.0 | 0.00 | 0.03 | 0.00 | 71 | 1011.2 |
| 20260509124512 | 15 | 21 | 0.0 | 1.6 | 0.00 | 0.03 | 0.00 | 71 | 1011.2 |
| 20260509124045 | 15 | 59 | 0.0 | 1.6 | 0.00 | 0.03 | 0.00 | 71 | 1011.2 |
| 20260509123503 | 15 | 77 | 0.0 | 1.6 | 0.00 | 0.03 | 0.00 | 71 | 1011.1 |
| 20260509123027 | 15 | 6 | 0.0 | 3.2 | 0.00 | 0.03 | 0.00 | 71 | 1011.0 |
| 20260509122504 | 15 | 39 | 0.0 | 3.2 | 0.00 | 0.03 | 0.00 | 72 | 1011.1 |
| 20260509122026 | 15 | 68 | 0.0 | 0.0 | 0.00 | 0.03 | 0.00 | 72 | 1011.1 |
| 20260509121504 | 15 | 33 | 0.0 | 1.6 | 0.00 | 0.03 | 0.00 | 72 | 1011.1 |
| 20260509121027 | 15 | 60 | 0.0 | 1.6 | 0.00 | 0.03 | 0.00 | 72 | 1011.1 |
| 20260509120545 | 15 | 51 | 0.0 | 0.0 | 0.00 | 0.03 | 0.00 | 72 | 1011.1 |
| 20260509120036 | 15 | 64 | 0.0 | 1.6 | 0.00 | 0.03 | 0.00 | 72 | 1011.1 |
| 20260509115546 | 15 | 25 | 0.0 | 1.6 | 0.00 | 0.03 | 0.00 | 72 | 1011.1 |
| 20260509115031 | 15 | 39 | 0.0 | 0.0 | 0.00 | 0.03 | 0.00 | 72 | 1011.1 |
| 20260509114549 | 15 | 47 | 0.0 | 0.0 | 0.00 | 0.03 | 0.00 | 72 | 1011.0 |
| 20260509114031 | 14 | 64 | 0.0 | 0.0 | 0.00 | 0.03 | 0.00 | 72 | 1011.0 |
| 20260509113511 | 14 | 336 | 0.0 | 0.0 | 0.00 | 0.03 | 0.00 | 71 | 1011.0 |
| 20260509113050 | 14 | 55 | 0.0 | 1.6 | 0.00 | 0.03 | 0.00 | 71 | 1011.0 |
| 20260509112528 | 14 | 65 | 0.0 | 0.0 | 0.00 | 0.03 | 0.00 | 70 | 1010.9 |
| 20260509112012 | 14 | 20 | 0.0 | 0.0 | 0.00 | 0.03 | 0.00 | 69 | 1010.8 |
| 20260509111546 | 14 | 18 | 0.0 | 1.6 | 0.00 | 0.03 | 0.00 | 69 | 1010.8 |
| 20260509111031 | 14 | 51 | 0.0 | 1.6 | 0.00 | 0.03 | 0.00 | 69 | 1010.9 |
| 20260509110511 | 13 | 335 | 0.0 | 1.6 | 0.00 | 0.03 | 0.00 | 69 | 1010.9 |
| 20260509110051 | 13 | 49 | 0.0 | 0.0 | 0.00 | 0.03 | 0.00 | 69 | 1010.9 |
| 20260509105534 | 13 | 89 | 0.0 | 0.0 | 0.00 | 0.03 | 0.00 | 69 | 1010.9 |
| 20260509105014 | 13 | 77 | 0.0 | 0.0 | 0.00 | 0.03 | 0.00 | 69 | 1010.7 |
| 20260509104553 | 13 | 78 | 0.0 | 0.0 | 0.00 | 0.03 | 0.00 | 68 | 1010.7 |
| 20260509104039 | 13 | 83 | 0.0 | 0.0 | 0.00 | 0.03 | 0.00 | 68 | 1010.6 |
| 20260509103521 | 14 | 56 | 0.0 | 0.0 | 0.00 | 0.03 | 0.00 | 67 | 1010.5 |
| 20260509103059 | 14 | 56 | 0.0 | 0.0 | 0.00 | 0.03 | 0.00 | 67 | 1010.5 |
| 20260509102529 | 14 | 46 | 0.0 | 0.0 | 0.00 | 0.03 | 0.00 | 67 | 1010.5 |
| 20260509102047 | 14 | 45 | 0.0 | 0.0 | 0.00 | 0.03 | 0.00 | 67 | 1010.6 |
| 20260509101528 | 14 | 45 | 0.0 | 0.0 | 0.00 | 0.03 | 0.00 | 67 | 1010.6 |
| 20260509101052 | 14 | 45 | 0.0 | 0.0 | 0.00 | 0.03 | 0.00 | 67 | 1010.5 |
| 20260509100534 | 14 | 36 | 0.0 | 0.0 | 0.00 | 0.03 | 0.00 | 67 | 1010.4 |
| 20260509100059 | 14 | 91 | 0.0 | 1.6 | 0.00 | 0.03 | 0.00 | 67 | 1010.3 |
| 20260509095538 | 14 | 36 | 0.0 | 1.6 | 0.00 | 0.03 | 0.00 | 66 | 1010.4 |